PHSYB EHRD-EHRD

Flight info

Callsign PHSYB
Flight time 0h 9m
Altitude 500
Route CIRCUITS
Aircraft DA62/L-SDFGRY/C

Departure

Time 2026-05-05 12:00
Airport Rotterdam The Hague Airport (EHRD)

Arrival

Time 2026-05-05 12:10
Airport Rotterdam The Hague Airport (EHRD)
Time Latitude Longitude Altitude Speed Heading
2026-05-05 11:38 51.94909 4.42651 -5 ft 0 kts 234°
2026-05-05 11:46 51.94926 4.42626 -5 ft 6 kts 59°
2026-05-05 11:46 51.94972 4.42722 -5 ft 11 kts 12°
2026-05-05 11:46 51.95014 4.42798 -5 ft 9 kts 57°
2026-05-05 11:47 51.95050 4.42890 -5 ft 10 kts 58°
2026-05-05 11:47 51.95085 4.42981 -5 ft 10 kts 57°
2026-05-05 11:47 51.95129 4.43089 -5 ft 14 kts 57°
2026-05-05 11:47 51.95192 4.43092 -4 ft 9 kts 34°
2026-05-05 11:48 51.95196 4.43097 -4 ft 0 kts 52°
2026-05-05 11:49 51.95201 4.43101 -4 ft 5 kts
2026-05-05 11:49 51.95291 4.43106 -4 ft 14 kts
2026-05-05 11:49 51.95346 4.43165 -4 ft 0 kts 58°
2026-05-05 11:49 51.95372 4.43231 -5 ft 31 kts 57°
2026-05-05 11:50 51.95591 4.43793 16 ft 79 kts 57°
2026-05-05 11:50 51.95938 4.44658 105 ft 106 kts 56°
2026-05-05 11:50 51.96358 4.45720 354 ft 119 kts 57°
2026-05-05 11:50 51.96890 4.46862 452 ft 133 kts 43°
2026-05-05 11:51 51.97789 4.47364 527 ft 143 kts
2026-05-05 11:51 51.98530 4.46864 480 ft 105 kts 324°
2026-05-05 11:51 51.98890 4.45812 435 ft 115 kts 286°
2026-05-05 11:51 51.98857 4.44905 460 ft 129 kts 258°
2026-05-05 11:52 51.98508 4.43472 388 ft 145 kts 246°
2026-05-05 11:52 51.97868 4.41467 450 ft 152 kts 243°
2026-05-05 11:52 51.97562 4.40569 428 ft 119 kts 241°
2026-05-05 11:52 51.97120 4.39436 384 ft 126 kts 237°
2026-05-05 11:53 51.96573 4.38257 405 ft 134 kts 223°
2026-05-05 11:53 51.95690 4.37723 410 ft 140 kts 173°
2026-05-05 11:53 51.94835 4.38269 505 ft 128 kts 131°
2026-05-05 11:53 51.94433 4.39387 484 ft 101 kts 103°
2026-05-05 11:54 51.94413 4.40400 371 ft 89 kts 71°
2026-05-05 11:54 51.94661 4.41398 254 ft 101 kts 60°
2026-05-05 11:54 51.94976 4.42239 108 ft 70 kts 57°
2026-05-05 11:54 51.95280 4.42987 32 ft 84 kts 57°
2026-05-05 11:55 51.95563 4.43701 2 ft 71 kts 63°
2026-05-05 11:55 51.95888 4.44512 83 ft 100 kts 55°
2026-05-05 11:55 51.96288 4.45498 377 ft 109 kts 55°
2026-05-05 11:55 51.96759 4.46513 488 ft 113 kts 51°
2026-05-05 11:56 51.97328 4.47063 318 ft 91 kts
2026-05-05 11:56 51.97911 4.46545 291 ft 110 kts 315°
2026-05-05 11:56 51.98166 4.45276 441 ft 135 kts 272°
2026-05-05 11:56 51.97904 4.43844 331 ft 124 kts 251°
2026-05-05 11:57 51.97542 4.42570 360 ft 134 kts 244°
2026-05-05 11:57 51.97091 4.41200 479 ft 139 kts 241°
2026-05-05 11:57 51.96596 4.39858 507 ft 138 kts 238°
2026-05-05 11:57 51.96095 4.38535 446 ft 134 kts 240°
2026-05-05 11:58 51.95445 4.37647 339 ft 118 kts 192°
2026-05-05 11:58 51.94726 4.37748 351 ft 99 kts 141°
2026-05-05 11:58 51.94406 4.38736 369 ft 109 kts 99°
2026-05-05 11:58 51.94292 4.39991 423 ft 114 kts 84°
2026-05-05 11:59 51.94518 4.41038 251 ft 90 kts 56°
2026-05-05 11:59 51.94858 4.41880 164 ft 92 kts 56°
2026-05-05 11:59 51.95185 4.42750 68 ft 85 kts 58°
2026-05-05 11:59 51.95478 4.43483 -6 ft 67 kts 56°
2026-05-05 12:00 51.95762 4.44193 31 ft 85 kts 55°
2026-05-05 12:00 51.96120 4.45088 215 ft 101 kts 56°
2026-05-05 12:00 51.96504 4.46032 547 ft 108 kts 47°
2026-05-05 12:00 51.97264 4.46477 675 ft 129 kts 356°
2026-05-05 12:01 51.97949 4.45435 651 ft 162 kts 285°
2026-05-05 12:01 51.97643 4.43835 496 ft 149 kts 237°
2026-05-05 12:01 51.97194 4.42795 495 ft 140 kts 236°
2026-05-05 12:01 51.97015 4.42383 471 ft 138 kts 237°
2026-05-05 12:02 51.96536 4.41218 499 ft 121 kts 238°
2026-05-05 12:02 51.96091 4.40089 653 ft 119 kts 238°
2026-05-05 12:02 51.95618 4.38953 805 ft 129 kts 237°
2026-05-05 12:02 51.95034 4.37558 452 ft 162 kts 236°
2026-05-05 12:03 51.94454 4.36122 429 ft 141 kts 238°
2026-05-05 12:03 51.93963 4.34897 372 ft 122 kts 239°
2026-05-05 12:03 51.93530 4.33810 419 ft 114 kts 218°
2026-05-05 12:03 51.92829 4.34100 512 ft 114 kts 131°
2026-05-05 12:04 51.92455 4.35046 460 ft 93 kts 91°
2026-05-05 12:04 51.92554 4.35939 521 ft 79 kts 62°
2026-05-05 12:04 51.92836 4.36850 511 ft 105 kts 59°
2026-05-05 12:04 51.93264 4.37940 479 ft 120 kts 56°
2026-05-05 12:05 51.93726 4.39093 564 ft 124 kts 57°
2026-05-05 12:05 51.94183 4.40214 488 ft 101 kts 57°
2026-05-05 12:05 51.94503 4.41079 377 ft 81 kts 56°
2026-05-05 12:05 51.94814 4.41832 238 ft 81 kts 55°
2026-05-05 12:06 51.95126 4.42612 79 ft 83 kts 56°
2026-05-05 12:06 51.95441 4.43392 -2 ft 77 kts 55°
2026-05-05 12:06 51.95729 4.44144 69 ft 90 kts 58°
2026-05-05 12:06 51.96096 4.45032 306 ft 103 kts 57°
2026-05-05 12:07 51.96522 4.46099 464 ft 123 kts 52°
2026-05-05 12:07 51.97352 4.46601 545 ft 142 kts 358°
2026-05-05 12:07 51.98135 4.45578 642 ft 162 kts 291°
2026-05-05 12:07 51.97938 4.44001 633 ft 125 kts 238°
2026-05-05 12:08 51.97433 4.42840 523 ft 130 kts 233°
2026-05-05 12:08 51.96899 4.41707 569 ft 118 kts 233°
2026-05-05 12:08 51.96417 4.40740 590 ft 108 kts 232°
2026-05-05 12:08 51.95827 4.40010 461 ft 111 kts 182°
2026-05-05 12:09 51.95161 4.40357 341 ft 97 kts 132°
2026-05-05 12:09 51.94891 4.41265 237 ft 81 kts 91°
2026-05-05 12:09 51.94967 4.42081 162 ft 71 kts 68°
2026-05-05 12:09 51.95191 4.42771 47 ft 69 kts 58°
2026-05-05 12:10 51.95424 4.43367 -6 ft 34 kts 60°
2026-05-05 12:10 51.95499 4.43568 -6 ft 14 kts 84°
2026-05-05 12:10 51.95446 4.43565 -6 ft 12 kts 211°
2026-05-05 12:10 51.95341 4.43453 -5 ft 23 kts 212°
2026-05-05 12:11 51.95227 4.43370 -5 ft 16 kts 236°
2026-05-05 12:11 51.95155 4.43180 -5 ft 22 kts 240°
2026-05-05 12:11 51.95079 4.42965 -5 ft 22 kts 236°
2026-05-05 12:11 51.95000 4.42766 -5 ft 10 kts 238°
2026-05-05 12:12 51.94942 4.42704 -5 ft 11 kts 212°
2026-05-05 12:12 51.94915 4.42639 -5 ft 0 kts 234°